sat.trackr.live / text

‹ back to catalog

STARLINK-1277

NORAD 45369 · 2020-019K

PAYLOAD ACTIVE UNKNOWN

§ Identity

Operator
Country
US
Launch date
2020-03-18
Launch site
AFETR
Launch vehicle
Mass (kg)
RCS (m²)

Purposes: comms

External: N2YO · Heavens-Above · Gunter

§ Orbital elements

Epoch: 2026-09-12T14:15:28.927584Z

Period
91.21 min
Inclination
53.0384°
Eccentricity
0.0003871
Mean motion
15.78808515 rev/d
Perigee alt
331.2 km
Apogee alt
336.4 km
Semi-major
6,712.0 km
B*
4.3454e-4
RAAN
315.6947°
Arg perigee
6.2522°
Mean anomaly
353.8546°
Rev number
35,919

§ Raw data

STARLINK-12771 45369U 20019K   26255.59408481  .00078126  00000+0  43454-3 0  99942 45369  53.0384 315.6947 0003871   6.2522 353.8546 15.78808515359192

JSON: /api/v1/satellites/45369 · /tle

For live sub-satellite position, see the globe view (requires WebGL).

§ Visibility from observer

Set your observer location to see the next 7 days of passes ≥ 10°. The values pass through the URL so the page stays shareable.

No JS? Fill the form by hand. The geolocation button needs JavaScript.